Location: Dehesa de la Cepeda
(40.6574°N, 4.3013°W)
Time: 21:19:03
(UTC+00:00)

Vanguard 2 Rocket - Pass Details

Date: 12 August 2021
Orbit: 556 x 3324 km, 32.9° (Epoch: 19 September)

Event Time Altitude Azimuth Distance (km) Brightness Sun altitude
Rises 05:54:01 0° 257° (WSW) 4,403 9.7 4.4°
Reaches altitude 10° 05:57:47 10° 250° (WSW) 2,995 8.9 5.1°
Maximum altitude 06:03:55 37° 185° (S) 1,200 7.5 6.2°
Drops below altitude 10° 06:08:05 10° 117° (ESE) 2,019 9.6 7.0°
Sets 06:10:11 0° 108° (ESE) 2,808 10.6 7.4°
